Regional Weather Roundup
Issued by NWS

Home | Current Version | Previous Version | Text Only | Print | Product List | Glossary Off
Versions: 1 2 3 4 5 6 7 8 9 10 11 12 13 14 15 16 17 18 19 20 21 22 23 24 25 26 27 28 29 30 31 32 33 34 35 36 37 38 39 40 41 42 43 44 45 46 47 48 49 50

000
ASUS43 KIND 151559
RWRIN

WEATHER ROUNDUP FOR INDIANA
NATIONAL WEATHER SERVICE INDIANAPOLIS IN
1200 PM EDT TUE APR 15 2014

NOTE: "FAIR" INDICATES FEW OR NO CLOUDS BELOW 12,000 FEET WITH NO
SIGNIFICANT WEATHER AND/OR OBSTRUCTIONS TO VISIBILITY.

* - STATION DOES NOT REPORT WEATHER SUCH AS PRECIPITATION OR FOG.

+ - STATION NOT QUALITY CONTROLLED BY THE NATIONAL WEATHER SERVICE.
    USE DATA WITH CAUTION...ESPECIALLY DEWPOINT AND RELATIVE
    HUMIDITY OBSERVATIONS.

INZ001>003-010>013-019-020-151700-
NORTHWEST INDIANA

CITY           SKY/WX    TMP DP  RH WIND       PRES   REMARKS
GARY /AIRPORT/ PTSUNNY   32  16  51 N14G25    30.15R WCI  22
VALPARAISO     MIX PCPN  30  14  51 N14G24    30.12R WCI  19

$$

LMZ046-743>745-151700-
SOUTHERN LAKE MICHIGAN

STATION/POSITION TIME  TEMP WIND        PRES
                       AIR  DIR/SP/G
                 (UTC) (F)  (DEG/KT/KT) (MB)
MICHIGAN CITY    1500   29  320/ 20/ 25   N/A

$$

INZ004-005-014>016-021>024-151700-
NORTH CENTRAL INDIANA

CITY           SKY/WX    TMP DP  RH WIND       PRES   REMARKS
ELKHART        PTSUNNY   30  10  43 NW16G28   30.08R WCI  19
GOSHEN         CLOUDY    30  16  56 NW18G26   30.07R WCI  18
SOUTH BEND     PTSUNNY   30  14  51 NW21G29   30.10R WCI  17

$$

INZ006>009-017-018-025>027-151700-
NORTHEAST INDIANA

CITY           SKY/WX    TMP DP  RH WIND       PRES   REMARKS
ANGOLA *+      CLOUDY    27  19  74 NW10      30.03R WCI  17
FORT WAYNE     PTSUNNY   31  16  54 NW17G24   30.05R WCI  19

$$

INZ028-029-035-036-043>045-051>053-151700-
WEST CENTRAL INDIANA

CITY           SKY/WX    TMP DP  RH WIND       PRES   REMARKS
GREENCASTLE +  CLOUDY    34  21  60 NW10G18   30.13R WCI  26
LAFAYETTE      PTSUNNY   32  18  56 NW18G26   30.14R WCI  20
TERRE HAUTE    PTSUNNY   36  20  52 N18G25    30.16R

$$

INZ030>032-037>040-046>048-054>057-064-065-151700-
CENTRAL INDIANA

CITY           SKY/WX    TMP DP  RH WIND       PRES   REMARKS
ANDERSON       PTSUNNY   32  21  64 NW17G29   30.08R WCI  21
COLUMBUS       PTSUNNY   36  27  69 NW10      30.11R
INDIANAPOLIS   LGT SNOW  28  26  92 NW13      30.11R FOG     WCI  17
-EAGLE CREEK   CLOUDY    30  24  78 NW18G38   30.10R HAZE    WCI  18
KOKOMO *+      PTSUNNY   34  18  51 N16G24    30.09R WCI  23
MT COMFORT *+  MOSUNNY   34  23  64 NW12G18   30.09R WCI  25
SHELBYVILLE    CLOUDY    35  24  64 N17       30.09R WCI  25

$$

INZ033-034-041-042-049-050-058-059-151700-
EAST CENTRAL INDIANA

CITY           SKY/WX    TMP DP  RH WIND       PRES   REMARKS
MUNCIE         PTSUNNY   33  21  61 NW17      30.06R WCI  22

$$

INZ060-061-067>069-081>083-085>088-151700-
SOUTHWEST INDIANA

CITY           SKY/WX    TMP DP  RH WIND       PRES   REMARKS
EVANSVILLE     PTSUNNY   39  24  55 N15G23    30.18R
HUNTINGBURG *+ MOSUNNY   39  25  56 N17G25    30.15R

$$

INZ062-063-066-070>080-084-089>092-151700-
SOUTH CENTRAL AND SOUTHEAST INDIANA

CITY           SKY/WX    TMP DP  RH WIND       PRES   REMARKS
BLOOMINGTON    CLOUDY    36  18  48 N15       30.11R

$$




USA.gov is the U.S. government's official web portal to all federal, state and local government web resources and services.